Weather History for Fort Myers, FL

Change the Weather History Date:

Friday, November 9, 2012

  Actual Average Record
Temperature  
Mean Temperature 63 °F 73 °F  
Max Temperature 76 °F 82 °F 89 °F (1975)
Min Temperature 50 °F 63 °F 45 °F (1951)
Degree Days  
Heating Degree Days 2 0  
Month to date heating degree days 5 0  
Since 1 July heating degree days 8 2  
Cooling Degree Days 0 8  
Month to date cooling degree days 36 79  
Year to date cooling degree days 4136 3727  
Growing Degree Days 12 (Base 50)    
Moisture  
Dew Point 47 °F    
Average Humidity 59    
Maximum Humidity 80    
Minimum Humidity 31    
Precipitation  
Precipitation 0.00 in 0.08 in 1.70 in (1968)
Month to date precipitation 0.66 0.77  
Year to date precipitation 47.43 53.03  
Sea Level Pressure  
Sea Level Pressure 30.19 in    
Wind  
Wind Speed 7 mph (NE)    
Max Wind Speed 15 mph    
Max Gust Speed 20 mph    
Visibility 10 miles    
Events      
T = Trace of Precipitation, MM = Missing Value Source: NWS Daily Summary

Daily Weather History Graph

Daily Weather History Graph

Search for Another Location

Airport:

Trip Planner

Search our weather history database for the weather conditions in past years. The results will help you decide how hot, cold, wet, or windy it might be!

Date:

Astronomy

Nov. 09, 2012 Rise Set
Actual Time 6:42 AM EST 5:39 PM EST
Civil Twilight 6:18 AM EST 6:03 PM EST
Nautical Twilight 5:50 AM EST 6:31 PM EST
Astronomical Twilight 5:23 AM EST 6:59 PM EST
Moon 2:05 AM EST (11/9) 2:29 PM EST (11/9)
Length of Visible Light 11h 45m
Length of Day
10h 57m
Waning Crescent, 23% of the Moon is Illuminated
Nov 9
Waning Crescent
Nov 13
New
Nov 20
First Quarter
Nov 28
Full
Dec 6
Last Quarter

Hourly Weather History & Observations

Time (EST) Temp. Dew Point Humidity Pressure Visibility Wind Dir Wind Speed Gust Speed Precip Events Conditions
12:53 AM 52.0 °F 44.1 °F 74% 30.17 in 10.0 mi NNE 4.6 mph - N/A   Clear
1:53 AM 51.1 °F 45.0 °F 80% 30.16 in 10.0 mi NNE 6.9 mph - N/A   Clear
2:53 AM 51.1 °F 44.1 °F 77% 30.15 in 10.0 mi NE 5.8 mph - N/A   Clear
3:53 AM 50.0 °F 44.1 °F 80% 30.15 in 10.0 mi NE 5.8 mph - N/A   Clear
4:53 AM 51.1 °F 44.1 °F 77% 30.17 in 10.0 mi NNE 4.6 mph - N/A   Clear
5:53 AM 51.1 °F 43.0 °F 74% 30.18 in 10.0 mi NE 5.8 mph - N/A   Clear
6:53 AM 51.1 °F 42.1 °F 71% 30.20 in 10.0 mi NE 5.8 mph - N/A   Clear
7:53 AM 55.9 °F 43.0 °F 62% 30.22 in 10.0 mi NE 8.1 mph - N/A   Clear
8:53 AM 61.0 °F 44.1 °F 54% 30.23 in 10.0 mi NE 12.7 mph - N/A   Clear
9:53 AM 66.0 °F 46.0 °F 48% 30.24 in 10.0 mi NNE 12.7 mph - N/A   Clear
10:53 AM 70.0 °F 48.9 °F 47% 30.24 in 10.0 mi NE 8.1 mph - N/A   Clear
11:53 AM 73.9 °F 45.0 °F 35% 30.22 in 10.0 mi NNE 10.4 mph - N/A   Clear
12:53 PM 75.0 °F 45.0 °F 34% 30.19 in 10.0 mi ENE 9.2 mph - N/A   Clear
1:53 PM 75.9 °F 42.1 °F 30% 30.17 in 10.0 mi NNE 4.6 mph - N/A   Clear
2:53 PM 75.9 °F 43.0 °F 31% 30.16 in 10.0 mi ENE 6.9 mph - N/A   Clear
3:53 PM 75.9 °F 46.0 °F 35% 30.15 in 10.0 mi NE 10.4 mph 16.1 mph N/A   Clear
4:53 PM 73.0 °F 48.9 °F 42% 30.15 in 10.0 mi ENE 13.8 mph - N/A   Scattered Clouds
5:53 PM 69.1 °F 50.0 °F 51% 30.16 in 10.0 mi ENE 5.8 mph - N/A   Clear
6:53 PM 66.0 °F 51.1 °F 59% 30.18 in 10.0 mi Calm Calm - N/A   Clear
7:53 PM 64.0 °F 52.0 °F 65% 30.20 in 10.0 mi East 3.5 mph - N/A   Clear
8:53 PM 63.0 °F 53.1 °F 70% 30.22 in 10.0 mi ENE 4.6 mph - N/A   Clear
9:53 PM 62.1 °F 52.0 °F 70% 30.23 in 10.0 mi ENE 4.6 mph - N/A   Clear
10:53 PM 60.1 °F 52.0 °F 75% 30.23 in 10.0 mi ENE 5.8 mph - N/A   Clear
11:53 PM 60.1 °F 51.1 °F 72% 30.22 in 10.0 mi ENE 5.8 mph - N/A   Scattered Clouds